Spokane Fairchild, WA
on Thursday, January 10, 2013

Thursday
Previous Day Next Day
Daily Summary
 ActualAverage (KGEG)Record (KGEG)
Temperature
Mean Temperature °F 29°F  
Max Temperature 30°F 34°F 50°F (2006)
Min Temperature 21°F 24°F -11°F (1974)
Degree Days
Heating Degree Days 40 36  
Month to date heating degree days 370  
Since 1 July heating degree days 3204  
Cooling Degree Days 0 0  
Month to date cooling degree days 0  
Year to date cooling degree days 0  
Moisture
Dew Point 26°F   
Average Humidity 100    
Maximum Humidity 100    
Minimum Humidity 99    
Precipitation
Precipitation 0.01 in 0.06 in 0.94 in (2006)
Month to date precipitation 0.64  
Year to date precipitation 0.64  
Snow
Snow 0.00 in 0.50 in 5.80 in (1979)
Month to date snowfall 4.7  
Since 1 July snowfall 26.8  
Snow Depth in   
Wind
Wind Speed 8 mph   
Max Wind Speed 18 mph   
Max Gust Speed mph   
Visibility 9 miles   
Events Snow   

Key: T is trace of precipitation, MM is missing value
Source: NWS Daily Summary
Time(PST)TemperatureDew PointHumidity Pressure Visibility Wind DirectionWind SpeedGust SpeedPrecipitationEvents Conditions
12:58 AM 29.5°F 29.5°F 100% 29.79 in 10.0 miles South 8.1 mph - N/A   Scattered Clouds
1:19 AM 28.4°F 28.4°F 100% 29.73 in 10.0 miles South 11.5 mph - N/A   Clear
1:38 AM 28.4°F 28.4°F 100% 29.74 in 10.0 miles South 12.7 mph - N/A   Clear
1:58 AM 28.8°F 28.8°F 100% 29.80 in 10.0 miles South 11.5 mph - 0.00 in   Clear
2:58 AM 28.0°F 28.0°F 100% 29.81 in 10.0 miles SSW 8.1 mph - N/A   Clear
2:59 AM 28.4°F 28.4°F 100% 29.74 in 10.0 miles SSW 9.2 mph - N/A   Clear
3:10 AM 28.4°F 28.4°F 100% 29.74 in 10.0 miles SSW 13.8 mph - N/A   Clear
3:58 AM 27.0°F 27.0°F 100% 29.81 in 10.0 miles SSW 9.2 mph - 0.00 in   Clear
4:58 AM 25.0°F 25.0°F 100% 29.82 in 10.0 miles SSW 6.9 mph - N/A   Partly Cloudy
5:48 AM 24.8°F 24.8°F 100% 29.74 in 10.0 miles SSW 10.4 mph - N/A   Clear
5:58 AM 24.3°F 24.3°F 100% 29.82 in 10.0 miles SSW 5.8 mph - 0.00 in   Clear
6:15 AM 24.8°F 24.8°F 100% 29.76 in 10.0 miles SE 5.8 mph - N/A   Clear
6:58 AM 22.3°F 22.3°F 100% 29.85 in 10.0 miles West 2.3 mph - 0.00 in   Clear
7:10 AM 23.0°F 23.0°F 100% 29.77 in 10.0 miles SSW 8.1 mph - N/A   Clear
7:20 AM 23.0°F 23.0°F 100% 29.77 in 10.0 miles South 8.1 mph - N/A   Clear
7:42 AM 23.0°F 23.0°F 100% 29.77 in 10.0 miles SW 3.5 mph - N/A   Mostly Cloudy
7:55 AM 23.0°F 23.0°F 100% 29.78 in 10.0 miles South 3.5 mph - N/A   Overcast
8:40 AM 21.2°F 21.2°F 100% 29.79 in 10.0 miles South 4.6 mph - N/A   Mostly Cloudy
8:43 AM 21.2°F 21.2°F 100% 29.79 in 10.0 miles SSE 4.6 mph - N/A   Mostly Cloudy
8:49 AM 23.0°F 23.0°F 100% 29.79 in 10.0 miles SE 2.3 mph - N/A   Mostly Cloudy
8:55 AM 23.0°F 23.0°F 100% 29.80 in 10.0 miles South 4.6 mph - N/A   Overcast
9:34 AM 24.8°F 24.8°F 100% 29.79 in 10.0 miles South 4.6 mph - N/A   Overcast
9:50 AM 24.8°F 24.8°F 100% 29.79 in 10.0 miles SW 4.6 mph - N/A   Overcast
9:55 AM 24.8°F 24.8°F 100% 29.79 in 10.0 miles SW 3.5 mph - N/A   Overcast
10:55 AM 25.5°F 25.5°F 100% 29.86 in 10.0 miles WNW 1.2 mph - N/A   Overcast
11:11 AM 24.8°F 24.8°F 100% 29.78 in 10.0 miles SSW 2.3 mph - N/A Snow Light Snow
11:55 AM 27.1°F 27.1°F 100% 29.85 in 10.0 miles WSW 3.5 mph - 0.00 in Snow Light Snow
12:55 PM 27.1°F 27.1°F 100% 29.85 in 10.0 miles SW 3.5 mph - 0.00 in Snow Light Snow
1:12 PM 28.4°F 28.4°F 100% 29.77 in 10.0 miles WNW 4.6 mph - N/A   Overcast
1:13 PM 28.4°F 28.4°F 100% 29.77 in 10.0 miles WNW 5.8 mph - N/A   Overcast
1:55 PM 28.4°F 28.4°F 100% 29.77 in 10.0 miles NW 6.9 mph - N/A   Overcast
2:06 PM 30.2°F 30.2°F 100% 29.77 in 10.0 miles NW 5.8 mph - N/A   Overcast
2:08 PM 30.2°F 30.2°F 100% 29.77 in 10.0 miles WNW 4.6 mph - N/A   Overcast
2:10 PM 30.2°F 30.2°F 100% 29.77 in 10.0 miles NW 3.5 mph - N/A   Overcast
2:27 PM 30.2°F 30.2°F 100% 29.78 in 10.0 miles WNW 3.5 mph - N/A   Overcast
2:47 PM 30.2°F 30.2°F 100% 29.78 in 10.0 miles NW 2.3 mph - N/A   Overcast
2:48 PM 30.2°F 30.2°F 100% 29.78 in 10.0 miles NW 2.3 mph - N/A   Overcast
2:58 PM 30.2°F 30.0°F 99% 29.86 in 10.0 miles NW 3.5 mph - 0.00 in   Overcast
3:38 PM 30.2°F 30.2°F 100% 29.79 in 10.0 miles WSW 4.6 mph - N/A   Overcast
3:43 PM 30.2°F 30.2°F 100% 29.79 in 10.0 miles WSW 3.5 mph - N/A   Overcast
3:58 PM 29.3°F 29.3°F 100% 29.86 in 10.0 miles WSW 4.6 mph - 0.00 in   Overcast
4:03 PM 28.4°F 28.4°F 100% 29.79 in 10.0 miles SW 5.8 mph - N/A   Overcast
4:19 PM 28.4°F 28.4°F 100% 29.79 in 10.0 miles SW 5.8 mph - N/A   Overcast
4:49 PM 28.4°F 28.4°F 100% 29.79 in 10.0 miles WSW 6.9 mph - N/A   Overcast
4:58 PM 28.4°F 28.4°F 100% 29.88 in 10.0 miles WSW 5.8 mph - 0.00 in   Overcast
5:07 PM 28.4°F 28.4°F 100% 29.79 in 10.0 miles West 5.8 mph - N/A   Overcast
5:12 PM 28.4°F 28.4°F 100% 29.79 in 10.0 miles West 5.8 mph - N/A   Overcast
5:47 PM 28.4°F 28.4°F 100% 29.80 in 7.0 miles NW 6.9 mph - N/A Snow Light Snow
5:58 PM 28.0°F 28.0°F 100% 29.89 in 4.0 miles NNW 5.8 mph - 0.00 in Snow Light Snow
6:08 PM 26.6°F 26.6°F 100% 29.80 in 2.0 miles NW 6.9 mph - N/A Snow Light Snow
6:13 PM 26.6°F 26.6°F 100% 29.80 in 2.0 miles NW 5.8 mph - N/A Snow Light Snow
6:38 PM 26.6°F 26.6°F 100% 29.80 in 3.0 miles North 6.9 mph - N/A Snow Light Snow
6:58 PM 26.4°F 26.4°F 100% 29.90 in 4.0 miles North 9.2 mph - 0.00 in Snow Light Snow
7:25 PM 26.6°F 26.6°F 100% 29.80 in 7.0 miles NW 8.1 mph - N/A Snow Light Snow
7:30 PM 26.6°F 26.6°F 100% 29.80 in 5.0 miles NW 9.2 mph - N/A Snow Light Snow
7:55 PM 24.8°F 24.8°F 100% 29.80 in 5.0 miles NW 10.4 mph - N/A Snow Light Snow
7:58 PM 24.8°F 24.8°F 100% 29.80 in 5.0 miles NW 11.5 mph - 0.01 in Snow Light Snow
8:03 PM 24.8°F 24.8°F 100% 29.80 in 6.0 miles NW 10.4 mph - N/A Snow Light Snow
8:13 PM 24.8°F 24.8°F 100% 29.80 in 7.0 miles NW 9.2 mph - N/A Snow Light Snow
8:28 PM 24.8°F 24.8°F 100% 29.80 in 7.0 miles NW 9.2 mph - N/A Snow Light Snow
8:38 PM 24.8°F 24.8°F 100% 29.80 in 8.0 miles NW 11.5 mph - N/A Snow Light Snow
8:58 PM 25.2°F 25.2°F 100% 29.80 in 9.0 miles NW 17.3 mph - 0.00 in Snow Light Snow
9:03 PM 24.8°F 24.8°F 100% 29.80 in 10.0 miles NW 18.4 mph - N/A Snow Light Snow
9:04 PM 24.8°F 24.8°F 100% 29.80 in 10.0 miles NW 17.3 mph - N/A Snow Light Snow
9:09 PM 24.8°F 24.8°F 100% 29.80 in 10.0 miles NW 15.0 mph - N/A Snow Light Snow
9:14 PM 24.8°F 24.8°F 100% 29.80 in 10.0 miles NW 13.8 mph - N/A Snow Light Snow
9:24 PM 24.8°F 24.8°F 100% 29.80 in 10.0 miles NW 15.0 mph - N/A Snow Light Snow
9:29 PM 24.8°F 24.8°F 100% 29.80 in 10.0 miles NW 15.0 mph - N/A Snow Light Snow
9:46 PM 24.8°F 24.8°F 100% 29.81 in 10.0 miles NW 12.7 mph - N/A Snow Light Snow
9:47 PM 24.8°F 24.8°F 100% 29.81 in 10.0 miles NW 13.8 mph - N/A Snow Light Snow
9:55 PM 24.8°F 24.8°F 100% 29.81 in 10.0 miles NW 12.7 mph - N/A Snow Light Snow
10:09 PM 24.8°F 24.8°F 100% 29.81 in 10.0 miles NW 11.5 mph - N/A Snow Light Snow
10:38 PM 24.8°F 24.8°F 100% 29.91 in 7.0 miles NW 11.5 mph - N/A Snow Light Snow
10:39 PM 24.8°F 24.8°F 100% 29.82 in 10.0 miles NW 11.5 mph - N/A Snow Light Snow
10:51 PM 24.8°F 24.8°F 100% 29.82 in 10.0 miles NW 11.5 mph - N/A Snow Light Snow
10:53 PM 24.8°F 24.8°F 100% 29.82 in 10.0 miles NW 11.5 mph - N/A Snow Light Snow
10:55 PM 24.8°F 24.8°F 100% 29.82 in 10.0 miles NW 11.5 mph - N/A Snow Light Snow
11:07 PM 23.0°F 23.0°F 100% 29.82 in 10.0 miles NW 11.5 mph - N/A Snow Light Snow
11:09 PM 23.0°F 23.0°F 100% 29.82 in 10.0 miles NW 10.4 mph - N/A Snow Light Snow
11:15 PM 23.0°F 23.0°F 100% 29.82 in 10.0 miles NW 10.4 mph - N/A Snow Light Snow
11:32 PM 23.0°F 23.0°F 100% 29.83 in 10.0 miles NW 10.4 mph - N/A Snow Light Snow
11:39 PM 23.0°F 23.0°F 100% 29.83 in 10.0 miles NW 10.4 mph - N/A Snow Light Snow
11:50 PM 23.0°F 23.0°F 100% 29.83 in 10.0 miles NW 12.7 mph - N/A Snow Light Snow
11:55 PM 23.0°F 23.0°F 100% 29.83 in 10.0 miles NW 12.7 mph - N/A Snow Light Snow
Moon Phase
Jan. 10 Jan. 11 Jan. 18 Jan. 26 Feb. 03
Sunrise:07:36 AM (PST) Moon Rise:06:20 AM (PST)1/10
Sunset:04:20 PM (PST) Moon Set:03:34 PM (PST)1/10

Copyright © 2014 The Weather Underground, Inc.